Regional Weather Roundup
Issued by NWS Pendleton, OR

Home | Current Version | Previous Version | Text Only | Print | Product List | Glossary On
Versions: 1 2 3 4 5 6 7 8 9 10 11 12 13 14 15 16 17 18 19 20 21 22 23 24 25 26 27 28 29 30 31 32 33 34 35 36 37 38 39 40 41 42 43 44 45 46 47 48 49 50
010
ASUS46 KPDT 301725
RWRPDT
PENDLETON REGIONAL WEATHER ROUNDUP
NATIONAL WEATHER SERVICE PENDLETON OREGON
1000 AM PDT SAT APR 30 2016

NOTE: FAIR INDICATES FEW OR NO CLOUDS BELOW 12,000 FEET WITH NO
SIGNIFICANT WEATHER AND/OR OBSTRUCTIONS TO VISIBILITY.

# INDICATES UNOFFICIAL STATION AND DATA

WAZ520-301810-
EAST SLOPES OF WASHINGTON CASCADES

CITY            SKY/WX      TMP DP  RH  WIND    PRES   REMARKS
#CLE ELUM HS    N/A         52  36  54  N7      30.22R
#CLE ELUM 2NW   N/A         51  34  52  SW7     N/A
#CLE ELUM LAKE  N/A         52  37  56  SW1     30.26F
#GLENWOOD       N/A         52  41  66  CALM    30.28S
#MANASTASH CYN  N/A         57  33  40  CALM    30.19S
#NELSON 3SW     N/A         50  37  61  CALM    30.46S
#NILE           N/A         54  36  50  W5      29.54S
#RONALD 2NW     N/A         52  N/A N/A W1      30.13S
#TEANAWAY 4NE   N/A         56  42  59  SW7     N/A
#TROUT LAKE 1NE N/A         52  41  66  CALM    30.27S
$$

WAZ521-301810-
SIMCOE HIGHLANDS

CITY            SKY/WX      TMP DP  RH  WIND    PRES   REMARKS
#BICKLETON HS   N/A         53  27  36  N10     N/A
#CENTERVILLE 1SWN/A         53  39  59  N5      30.23F
#GOLDENDALE 1NE N/A         52  28  39  SW2     N/A
#GOODNOE HILLS  N/A         57  41  55  W12     30.15S
#LYLE 6NE       N/A         51  42  71  S3      30.26R
$$

WAZ026-301810-
KITTITAS VALLEY

CITY            SKY/WX      TMP DP  RH  WIND    PRES   REMARKS
ELLENSBURG AP   N/A         59  37  44  NW21    30.23S
YTC-OPS AREA    SUNNY       54  33  45  W9      30.25R
#ELLENSBURG CWU N/A         56  37  49  NW16    30.17F
#ELLENSBURG 3NE N/A         56  40  55  N9      30.22S
#ELLENSBURG     N/A         60  38  44  N8      N/A
#ELLENSBURG 1E  N/A         54  N/A N/A NW1     N/A
#KITTITAS 3S    N/A         56  41  57  NW10    30.22S
#THORP 6N       N/A         52  39  61  W7      30.28S
$$

WAZ027-301810-
YAKIMA VALLEY

CITY            SKY/WX      TMP DP  RH  WIND    PRES   REMARKS
SUNNYSIDE AP    SUNNY       62  41  46  W6      30.23S
YAKIMA AIRPORT  MOCLDY      62  34  35  N5      30.25S
YAKIMA-VAGABOND MOCLDY      60  35  39  NW6     30.23R
#DONALD 2NE     N/A         64   6  10  W2      29.09R
#GRANDVIEW      N/A         62  36  38  CALM    30.24F
#MABTON         N/A         60  39  46  W7      30.24S
#NACHES 2SW     N/A         56  39  53  W7      30.25R
#TERRACE HTS    N/A         60  39  46  CALM    30.20S
#TOPPENISH      N/A         59  38  45  CALM    30.15F
#WEST VALLEY    N/A         58  38  47  NE3     30.22S
#W YAKIMA       N/A         60  39  46  W3      30.24S
#WHITE SWAN 5E  N/A         60  39  46  CALM    30.25S
#WILEY CITY 3W  N/A         62  33  34  CALM    30.21R
$$

WAZ028-301810-
LOWER COLUMBIA BASIN...WASHINGTON

CITY            SKY/WX      TMP DP  RH  WIND    PRES   REMARKS
HANFORD         MOSUNNY     63  34  34  N9      30.24R
PASCO           SUNNY       62  37  39  CALM    30.23S
PROSSER AWOS    N/A         61  39  44  W9      30.26F
RICHLAND AWOS   SUNNY       67  37  33  NW8     30.23S
#BENTON CITY    N/A         61  41  48  SW3     30.14S
#CONNELL 5N     N/A         60  49  67  NW5     30.21R
#CONNELL 5NW    N/A         59  50  72  N5      30.17S
#ELTOPIA 6NW    N/A         62  45  54  N2      29.18S
#KAHLOTUS       N/A         55  45  69  CALM    30.21S
#KENNEWICK 3S   N/A         61  41  48  CALM    30.23S
#PATERSON       N/A         57  43  59  W8      30.23S
#SAGEMOOR 2W    N/A         60  45  58  CALM    30.06S
#TOUCHET 2S     N/A         55  45  69  SW7     30.22S
#WEST PASCO     N/A         64  41  43  N5      30.32F
$$

WAZ029-301810-
FOOTHILLS OF THE BLUES...WASHINGTON

CITY            SKY/WX      TMP DP  RH  WIND    PRES   REMARKS
WALLA WALLA AP  MOCLDY      53  43  69  S12     30.24S
#CLYDE 6NW      N/A         55  45  69  SW6     30.22R
#DAYTON SCHOOL  N/A         53  38  57  W5      30.24R
#LOWDEN 2SE     N/A         58  45  62  W6      30.21S
#PLEASANT VIEW 1N/A         55  44  66  S7      30.26R
#PRESCOTT       N/A         54  46  74  S2      30.22S
#SUDBURY        N/A         57  N/A N/A CALM    N/A
#WHITMAN COLLEGEN/A         55  45  69  SE3     30.29S
#WAITSBURG 5S   N/A         51  43  74  SW13    30.33S
#WAITSBURG 8N   N/A         53  21  28  S13     30.12R
#WALLA WALLA U  N/A         57  45  64  CALM    30.24S
#WHITMAN MISSIONN/A         57  46  67  SW5     30.25S
$$

WAZ030-301810-
BLUE MOUNTAINS...WASHINGTON

CITY            SKY/WX      TMP DP  RH  WIND    PRES   REMARKS
#DIXIE 5SE      N/A         45  40  82  S6      30.16R
$$

ORZ009-041-WAZ024-301810-
COLUMBIA RIVER GORGE

CITY            SKY/WX      TMP DP  RH  WIND    PRES   REMARKS
HOOD RIVER AP   SUNNY       55  41  59  W9      30.30S
THE DALLES AP   SUNNY       59  40  49  N17     30.28S
#ARLINGTON AIRPON/A         57  41  55  W10     30.26S
#CELILO DOT     N/A         63  42  46  W1      N/A
#MARYHILL 2W    N/A         58  40  51  S3      N/A
#MOSIER 1S      N/A         56  30  37  W8      30.27S
#MURDOCK        N/A         58  44  60  W12     30.24F
#RUFUS DOT      N/A         58  39  49  W12     N/A

$$

ORZ510-301810-
NORTH CENTRAL OREGON

CITY            SKY/WX      TMP DP  RH  WIND    PRES   REMARKS
#ANTELOPE       N/A         50  38  63  CALM    30.18F
#COW CYN RST AREN/A         49  33  54  E2      N/A
#DUFUR 9E       N/A         49  37  63  W6      30.32S
#GRASS VALLEY   N/A         52  34  50  N1      N/A
#GRASS VALLEY 1SN/A         52  39  61  W5      30.19S
#KENT DOT       N/A         51  31  46  N7      N/A
#MAUPIN SCHOOL  N/A         56  39  53  CALM    30.30S
#MORO SCHOOL    N/A         53  42  66  NW9     30.26R
#SHANIKO 5WSW   N/A         48  28  46  CALM    N/A
#TYGH VALLEY 2NEN/A         56  40  55  CALM    30.27F
#WAPANITIA AIRPON/A         54  39  57  CALM    30.28S
#WASCO DOT      N/A         57  41  55  W8      N/A
#WASCO 5NE      N/A         55  43  64  SW2     30.26S
$$

ORZ511-301810-
CENTRAL OREGON

CITY            SKY/WX      TMP DP  RH  WIND    PRES   REMARKS
BEND AIRPORT    SUNNY       48  32  54  N7      30.25S
MADRAS AIRPORT  SUNNY       50  36  58  N6      30.29S
PRINEVILLE AP   SUNNY       50  34  54  VRB7    30.25F
REDMOND AIRPORT SUNNY       49  33  54  N8      30.26S
#ASHWOOD SCHOOL N/A         50  36  58  CALM    30.21S
#BEND 1SW       N/A         47  34  60  E3      N/A
#BEND-AWBREY    N/A         46  36  68  N1      30.29R
#BEND-KIM LN    N/A         47  34  60  N2      30.23S
#CULVER         N/A         48  36  63  NW1     30.25F
#LAKE BILLY CHINN/A         51  N/A N/A N3      30.29F
#POWELL BUTTE   N/A         55  39  55  NW2     30.11S
#PRINEVILLE 3N  N/A         51  37  59  W3      30.26F
#WARM SPRINGS   N/A         55  38  53  E1      30.24S

$$


ORZ509-301810-
EAST SLOPES OF OREGON CASCADES

CITY            SKY/WX      TMP DP  RH  WIND    PRES   REMARKS
SISTERS AWOS    N/A         48  34  58  VRB6    30.21S
#BLUE BOX PASS  N/A         39  N/A N/A CALM    N/A
#BLACK BUTTE RNCN/A         50  34  54  CALM    30.28S
#CAMP SHERMAN   N/A         55  31  40  CALM    30.32F
#LA PINE 4NW    N/A         46  31  56  CALM    30.31F
#LAVA BUTTE DOT N/A         43  28  55  NE3     N/A
#SISTERS AIRPOR N/A         49  39  68  N1      30.17S
#SISTERS ODOT   N/A         49  N/A N/A N2      N/A
#SISTERS 3N     N/A         52  35  52  SW3     30.23S
#SUNRIVER       N/A         46  34  63  E3      30.32S
#TUMALO 3W      N/A         47  33  58  NE3     30.16S
#WANOGA BUTTE D N/A         38  26  62  NE9     N/A

$$

ORZ044-301810-
LOWER COLUMBIA BASIN...OREGON

CITY            SKY/WX      TMP DP  RH  WIND    PRES   REMARKS
HERMISTON       CLOUDY      60  40  47  W9      30.24S
#BOARDMAN SCHOOLN/A         59  43  55  SW7     30.24S
#BOARDMAN 8SW   N/A         56  43  62  W9      30.25
#ECHO 8SW       N/A         59  40  49  W7      30.25S
#I-84 EX 198 DOTN/A         56  40  55  E8      N/A
#UMATILLA SCHOOLN/A         60  47  62  W7      30.21F
#UMATILLA       N/A         60  42  51  CALM    30.18S
$$

ORZ507-301810-
NORTHERN FOOTHILLS OF THE BLUES

CITY            SKY/WX      TMP DP  RH  WIND    PRES   REMARKS
PENDLETON AIRPT MOCLDY      54  36  50  W8      30.24S
#ADAMS 3WNW     N/A         52  40  63  W7      30.25S
#ATHENA         N/A         50  42  74  CALM    30.27S
#CAYUSE         N/A         52  41  66  SW2     30.24S
#HELIX SCHOOL   N/A         51  40  66  W7      30.24S
#HELIX 3N       N/A         49  41  74  SW12    30.19S WCI 44
#HELIX 6SW      N/A         51  42  71  W7      30.23R
#HOLDMAN 5SE    N/A         54  43  66  W7      30.22S
#HOLDMAN 6E     N/A         52  43  71  NE6     30.05S
#M-F FERNDALE   N/A         55  46  72  CALM    30.23S
#M-F GROVE ELEM N/A         53  40  61  S5      30.22S
#M-FREEWATER 5SEN/A         52  42  69  SW2     30.23S
#PENDLETON DNTN N/A         57  37  47  CALM    30.27R
#PDT AQUATIC CTRN/A         56  37  49  W3      30.25S
#PDT SUNRIDGE   N/A         54  38  55  W5      30.26S
#PENDLETON 7NW  N/A         54  41  61  W1      27.45S
#PILOT ROCK     N/A         55  36  49  CALM    30.24S
#TUTUILLA       N/A         54  41  61  CALM    30.25S
#UMAPINE 2E     N/A         57  48  72  SW2     30.22R
#WESTON SCHOOL  N/A         49  39  68  W6      30.16S

$$

ORZ508-301810-
SOUTHERN FOOTHILLS OF THE BLUES

CITY            SKY/WX      TMP DP  RH  WIND    PRES   REMARKS
#AJAX           N/A         52  33  48  SE5     27.99S
#CONDON SCHOOL  N/A         51  37  59  N2      30.19S
#CONDON 5W      N/A         47  33  58  W5      30.21S
#FOSSIL SCHOOL  N/A         50  37  61  W2      30.19S
#HEPPNER EOC    N/A         53  39  59  N3      30.19F
#HEPPNER 4NE    N/A         50  39  66  W3      30.26S
#LEXINGTON 2SE  N/A         58  40  51  CALM    30.21F
#RUGGS 5NE      N/A         53  36  52  W3      30.40R
#RUGGS 2SW      N/A         51  36  56  NW5     30.27S

$$

ORZ502-503-301810-
BLUE MOUNTAINS

CITY            SKY/WX      TMP DP  RH  WIND    PRES   REMARKS
MEACHAM         CLOUDY      43  36  76  VRB3    30.23S
#BATTLE MTN DOT N/A         46  42  86  N2      N/A
#GREENHORN 9SW  N/A         47  38  71  W3      26.38S
#HARDMAN 10S    N/A         61  34  36  N5      30.22S
#HEPPNER 15SE   N/A         46  37  71  N3      25.74R
#LADD CREEK ODOTN/A         47  33  58  NE2     N/A
#LONG CREEK HS  N/A         44  40  86  CALM    N/A
#N POWDER DOT   N/A         48  39  71  NE16    N/A    WCI 42
#PIKES PEAK     N/A         41  35  79  S12     27.99S WCI 34
#TOLLGATE       N/A         36  35  96  CALM    30.04R
#TROY SCHOOL    N/A         54  44  69  CALM    30.05S
#UKIAH          N/A         48  38  68  CALM    30.18S
#WESTON 4E      N/A         42  39  89  S5      30.23S
$$

ORZ505-301810-
JOHN DAY BASIN

CITY            SKY/WX      TMP DP  RH  WIND    PRES   REMARKS
JOHN DAY        CLOUDY      46  37  71  W6      30.23S
#DAYVILLE SCHOOLN/A         52  35  52  NW5     30.19S
#MITCHELL       N/A         49  39  68  CALM    30.38S
#MITCHELL 8NW   N/A         47  34  60  NE3     30.47R
#MONUMENT HS    N/A         51  36  56  SE5     30.24S
#MT. VERNON 5SE N/A         44  35  70  N2      30.18S
#SPRAY SCHOOL   N/A         56  N/A N/A N1      N/A
#WINLOCK        N/A         53  37  54  E6      30.19F
$$

ORZ506-301810-
OCHOCO AND JOHN DAY HIGHLANDS

CITY            SKY/WX      TMP DP  RH  WIND    PRES   REMARKS
#HORSE RIDGE DO N/A         42  30  62  NW10    N/A
#KEYES SMT DOT  N/A         43  35  73  N8      N/A
#PAULINA SCHOOL N/A         49  35  58  CALM    29.42F
#PINE MTN OBS   N/A         32  31  96  NW3     N/A
#PRAIRIE CITY   N/A         48  39  71  W2      30.20R
#SENECA         N/A         44  N/A N/A N7      N/A
#SENECA 9NW     N/A         44  35  70  VRB1    30.19F
$$

ORZ049-301810-
GRANDE RONDE VALLEY

CITY            SKY/WX      TMP DP  RH  WIND    PRES   REMARKS
LA GRANDE       CLOUDY      50  32  50  NW13    30.21S
#COVE           N/A         47  42  83  CALM    30.23S
#COVE SCHOOL    N/A         47  40  76  CALM    30.22S
#COVE 6NW       N/A         39  35  85  CALM    29.63S
#ELGIN 3N       N/A         50  39  66  S5      30.17S
#ELGIN 1E       N/A         48  37  65  CALM    N/A
#ISLAND CITY 4N N/A         52  47  83  CALM    30.36F
#LADD CYN DOT   N/A         49  37  63  NW7     N/A
#UNION 1S       N/A         49  39  68  W7      30.14S
$$

ORZ050-301810-
WALLOWA COUNTY

CITY            SKY/WX      TMP DP  RH  WIND    PRES   REMARKS
JOSEPH AIRPORT  CLOUDY      45  39  79  N5      30.21S
#ENTERPRISE AP  N/A         49  29  46  CALM    30.12R
#ENTERPRISE HS  N/A         44  39  82  W5      30.21R
#IMNAHA SCHOOL  N/A         50  47  89  CALM    30.19R
#IMNAHA 10S     N/A         44  41  89  CALM    30.17R
#JOSEPH 3N      N/A         42  36  79  N6      30.20R
#JOSEPH 3W      N/A         42  40  93  CALM    30.01R
#LOSTINE        N/A         46  39  76  NW3     30.03R
#MT HOWARD 8000 N/A         31  30  96  CALM    30.15R
#PROMISE 1S     N/A         45  39  79  SE2     30.31S
#WALLOWA SCHOOL N/A         47  39  74  CALM    30.16S



$$



USA.gov is the U.S. government's official web portal to all federal, state and local government web resources and services.